Location: Elaine Barite Prospect
(34.1431°N, 106.7922°W)
Time: 11:13:25
(UTC+00:00)

Cosmos 2333 Rocket - Pass Details

Date: 13 December 2025
Orbit: 837 x 865 km, 70.8° (Epoch: 15 January)

Event Time Altitude Azimuth Distance (km) Brightness Sun altitude
Exits shadow 12:07:28 18° 351° (N) 1,976 3.9 -23.5°
Maximum altitude 12:11:41 59° 67° (ENE) 991 2.7 -22.6°
Drops below altitude 10° 12:17:17 10° 146° (SE) 2,477 5.3 -21.5°
Sets 12:19:46 0° 150° (SSE) 3,405 6.0 -21.0°
